Weather History for Rawlins, WY

Change the Weather History Date:

Saturday, August 24, 2013

  Actual Average Record
Temperature  
Mean Temperature 64 °F 64 °F  
Max Temperature 80 °F 80 °F 91 °F (2011)
Min Temperature 48 °F 48 °F 33 °F (2010)
Degree Days  
Heating Degree Days 1 3  
Month to date heating degree days 8 35  
Since 1 June heating degree days 109 260  
Since 1 July heating degree days 8 70  
Cooling Degree Days 0 1  
Month to date cooling degree days 90 57  
Year to date cooling degree days 290 174  
Since 1 June cooling degree days 289 174  
Growing Degree Days 13 (Base 50)    
Moisture  
Dew Point 44 °F    
Average Humidity 58    
Maximum Humidity 93    
Minimum Humidity 23    
Precipitation  
Precipitation 0.00 in 0.02 in 0.31 in (1977)
Month to date precipitation 0.57 0.59  
Year to date precipitation 3.78 6.38  
Sea Level Pressure  
Sea Level Pressure 29.94 in    
Wind  
Wind Speed 8 mph (WSW)    
Max Wind Speed 23 mph    
Max Gust Speed 30 mph    
Visibility 10 miles    
Events      
T = Trace of Precipitation, MM = Missing Value Source: NWS Daily Summary

Daily Weather History Graph

Daily Weather History Graph

Search for Another Location

Airport:

Trip Planner

Search our weather history database for the weather conditions in past years. The results will help you decide how hot, cold, wet, or windy it might be!

Date:

Astronomy

Aug. 24, 2013 Rise Set
Actual Time 6:26 AM MDT 7:54 PM MDT
Civil Twilight 5:57 AM MDT 8:23 PM MDT
Nautical Twilight 5:22 AM MDT 8:58 PM MDT
Astronomical Twilight 4:44 AM MDT 9:35 PM MDT
Moon 9:45 PM MDT (8/24) 10:34 AM MDT (8/24)
Length of Visible Light 14h 26m
Length of Day
13h 27m
Waning Gibbous, 84% of the Moon is Illuminated
Aug 24
Waning Gibbous
Aug 28
Last Quarter
Sep 5
New
Sep 12
First Quarter
Sep 19
Full

Hourly Weather History & Observations

Time (MDT) Temp. Dew Point Humidity Pressure Visibility Wind Dir Wind Speed Gust Speed Precip Events Conditions
12:53 AM 55.9 °F 48.9 °F 77% 29.88 in 10.0 mi Calm Calm - N/A   Clear
1:53 AM 54.0 °F 48.9 °F 83% 29.88 in 10.0 mi Calm Calm - N/A   Clear
2:53 AM 53.1 °F 48.0 °F 83% 29.88 in 10.0 mi Calm Calm - N/A   Clear
3:53 AM 51.1 °F 46.9 °F 86% 29.89 in 10.0 mi Calm Calm - N/A   Clear
4:53 AM 53.1 °F 46.9 °F 80% 29.88 in 10.0 mi Calm Calm - N/A   Clear
5:53 AM 48.9 °F 46.0 °F 90% 29.90 in 10.0 mi NW 6.9 mph - N/A   Clear
6:53 AM 52.0 °F 46.9 °F 83% 29.99 in 10.0 mi Calm Calm - N/A   Scattered Clouds
7:53 AM 55.9 °F 48.9 °F 77% 29.97 in 10.0 mi SW 6.9 mph - N/A   Clear
8:53 AM 61.0 °F 51.1 °F 70% 29.98 in 10.0 mi WSW 9.2 mph - N/A   Mostly Cloudy
9:53 AM 61.0 °F 51.1 °F 70% 29.99 in 10.0 mi WSW 17.3 mph 26.5 mph N/A   Partly Cloudy
10:53 AM 64.0 °F 48.9 °F 58% 30.00 in 10.0 mi WSW 19.6 mph 25.3 mph N/A   Clear
11:53 AM 70.0 °F 48.9 °F 47% 29.98 in 10.0 mi WSW 11.5 mph 23.0 mph N/A   Clear
12:53 PM 73.0 °F 42.1 °F 33% 29.96 in 10.0 mi Variable 6.9 mph 17.3 mph N/A   Clear
1:53 PM 75.9 °F 39.9 °F 27% 29.95 in 10.0 mi WSW 16.1 mph 21.9 mph N/A   Clear
2:53 PM 75.0 °F 39.0 °F 27% 29.94 in 10.0 mi WSW 6.9 mph - N/A   Clear
3:53 PM 77.0 °F 39.0 °F 25% 29.93 in 10.0 mi SSW 13.8 mph 17.3 mph N/A   Partly Cloudy
4:53 PM 78.1 °F 37.9 °F 24% 29.91 in 10.0 mi WSW 11.5 mph - N/A   Clear
5:53 PM 75.9 °F 37.0 °F 24% 29.91 in 10.0 mi SSW 9.2 mph 18.4 mph N/A   Clear
6:53 PM 75.0 °F 39.0 °F 27% 29.91 in 10.0 mi SW 10.4 mph - N/A   Clear
7:53 PM 71.1 °F 39.9 °F 32% 29.92 in 10.0 mi SSW 6.9 mph - N/A   Clear
8:53 PM 66.0 °F 42.1 °F 42% 29.95 in 10.0 mi West 6.9 mph - N/A   Clear
9:53 PM 66.9 °F 43.0 °F 42% 29.96 in 10.0 mi WSW 8.1 mph - N/A   Clear
10:53 PM 64.9 °F 43.0 °F 45% 29.96 in 10.0 mi WSW 5.8 mph - N/A   Clear
11:53 PM 64.0 °F 42.1 °F 45% 29.96 in 10.0 mi West 8.1 mph - N/A   Partly Cloudy